When you browse on this site, cookies collect data to enhance your experience and personalize the content and advertising you see.
Visit our Privacy Policy to learn more. By continuing to use the site, you agree to this use of cookies and data.
  • In Deutschland
  • Länderverzeichnis
  • Für 7 Tage
  • Wassertemperatur
  • Satellitenkarten
  • Wetterkarte
  • Widgets
  • user-avatar
    Anmelden

    Stündliche Wetter Nowinki

    Heute, 23 Juli, Dienstag

    Zeit Temperatur Niederschläge Wind Luftdruck Luftfeuchtigkeit
    00:00 +18°C° 0 mm 2 m/S 755 mmHg 72%
    01:00 +18°C° 0 mm 2 m/S 754 mmHg 75%
    02:00 +17°C° 0 mm 2 m/S 754 mmHg 77%
    03:00 +18°C° 0 mm 1 m/S 754 mmHg 78%
    04:00 +18°C° 0 mm 1 m/S 754 mmHg 79%
    05:00 +18°C° 0 mm 1 m/S 754 mmHg 78%
    06:00 +18°C° 0 mm 1 m/S 754 mmHg 77%
    07:00 +18°C° 0 mm 2 m/S 754 mmHg 76%
    08:00 +18°C° 0 mm 2 m/S 754 mmHg 76%
    09:00 +18°C° 0 mm 2 m/S 754 mmHg 76%
    10:00 +18°C° 0 mm 2 m/S 754 mmHg 76%
    11:00 +18°C° 0 mm 2 m/S 754 mmHg 77%
    12:00 +18°C° 0 mm 2 m/S 754 mmHg 77%
    13:00 +18°C° 0 mm 2 m/S 754 mmHg 78%
    14:00 +19°C° 0 mm 3 m/S 754 mmHg 76%
    15:00 +19°C° 0 mm 3 m/S 754 mmHg 75%
    16:00 +20°C° 0 mm 3 m/S 754 mmHg 73%
    17:00 +19°C° 0 mm 3 m/S 753 mmHg 77%
    18:00 +19°C° 0 mm 3 m/S 753 mmHg 80%
    19:00 +18°C° 0 mm 3 m/S 753 mmHg 83%
    20:00 +17°C° 0 mm 2 m/S 753 mmHg 87%
    21:00 +16°C° 0 mm 2 m/S 753 mmHg 90%
    22:00 +16°C° 0 mm 2 m/S 753 mmHg 94%
    23:00 +16°C° 0 mm 1 m/S 753 mmHg 94%

    Morgen, 24 Juli, Mittwoch

    Zeit Temperatur Niederschläge Wind Luftdruck Luftfeuchtigkeit
    00:00 +15°C° 0 mm 1 m/S 753 mmHg 94%
    01:00 +15°C° 0 mm 1 m/S 753 mmHg 95%
    02:00 +16°C° 0 mm 1 m/S 753 mmHg 94%
    03:00 +16°C° 0 mm 1 m/S 753 mmHg 93%
    04:00 +15°C° 0 mm 0 m/S 753 mmHg 93%
    05:00 +18°C° 0 mm 1 m/S 753 mmHg 88%
    06:00 +19°C° 0 mm 1 m/S 753 mmHg 83%
    07:00 +20°C° 0 mm 1 m/S 753 mmHg 77%
    08:00 +21°C° 0 mm 1 m/S 753 mmHg 72%
    09:00 +23°C° 0 mm 1 m/S 753 mmHg 67%
    10:00 +24°C° 0 mm 2 m/S 754 mmHg 62%
    11:00 +25°C° 0 mm 2 m/S 753 mmHg 58%
    12:00 +26°C° 0 mm 2 m/S 753 mmHg 53%
    13:00 +27°C° 0 mm 2 m/S 753 mmHg 49%
    14:00 +27°C° 0 mm 2 m/S 753 mmHg 48%
    15:00 +27°C° 0 mm 2 m/S 753 mmHg 46%
    16:00 +28°C° 0 mm 2 m/S 753 mmHg 45%
    17:00 +26°C° 0 mm 2 m/S 753 mmHg 51%
    18:00 +25°C° 0 mm 2 m/S 753 mmHg 58%
    19:00 +23°C° 0 mm 2 m/S 753 mmHg 64%
    20:00 +22°C° 0 mm 1 m/S 753 mmHg 68%
    21:00 +21°C° 0 mm 1 m/S 753 mmHg 71%
    22:00 +18°C° 0 mm 0 m/S 754 mmHg 75%
    23:00 +17°C° 0 mm 0 m/S 754 mmHg 77%

    übermorgen, 25 Juli, Donnerstag

    Zeit Temperatur Niederschläge Wind Luftdruck Luftfeuchtigkeit
    00:00 +17°C° 0 mm 0 m/S 754 mmHg 78%
    01:00 +17°C° 0 mm 0 m/S 754 mmHg 80%
    02:00 +16°C° 0 mm 0 m/S 754 mmHg 81%
    03:00 +16°C° 0 mm 0 m/S 754 mmHg 82%
    04:00 +16°C° 0 mm 0 m/S 754 mmHg 83%
    05:00 +18°C° 0 mm 0 m/S 754 mmHg 78%
    06:00 +19°C° 0 mm 0 m/S 754 mmHg 72%
    07:00 +21°C° 0 mm 0 m/S 754 mmHg 67%
    08:00 +24°C° 0 mm 1 m/S 754 mmHg 62%
    09:00 +26°C° 0 mm 1 m/S 754 mmHg 57%
    10:00 +27°C° 0 mm 1 m/S 754 mmHg 52%
    11:00 +27°C° 0.1 mm 2 m/S 753 mmHg 51%
    12:00 +28°C° 0.1 mm 2 m/S 753 mmHg 50%
    13:00 +28°C° 0.1 mm 2 m/S 753 mmHg 49%
    14:00 +28°C° 0.1 mm 2 m/S 753 mmHg 50%
    15:00 +28°C° 0.1 mm 3 m/S 752 mmHg 51%
    16:00 +28°C° 0.1 mm 3 m/S 752 mmHg 51%
    17:00 +27°C° 0 mm 3 m/S 752 mmHg 56%
    18:00 +26°C° 0 mm 3 m/S 752 mmHg 61%
    19:00 +24°C° 0 mm 3 m/S 752 mmHg 66%
    20:00 +22°C° 0 mm 3 m/S 752 mmHg 70%
    21:00 +21°C° 0 mm 3 m/S 752 mmHg 73%
    22:00 +19°C° 0 mm 3 m/S 753 mmHg 77%
    23:00 +18°C° 0 mm 3 m/S 752 mmHg 81%

    26 Juli, Freitag

    Zeit Temperatur Niederschläge Wind Luftdruck Luftfeuchtigkeit
    00:00 +18°C° 0 mm 2 m/S 752 mmHg 84%
    01:00 +17°C° 0 mm 2 m/S 752 mmHg 88%
    02:00 +16°C° 0 mm 2 m/S 752 mmHg 90%
    03:00 +16°C° 0 mm 2 m/S 752 mmHg 91%
    04:00 +16°C° 0 mm 2 m/S 752 mmHg 93%
    05:00 +17°C° 0 mm 3 m/S 752 mmHg 87%
    06:00 +18°C° 0 mm 3 m/S 752 mmHg 81%
    07:00 +19°C° 0 mm 3 m/S 752 mmHg 75%
    08:00 +20°C° 0.1 mm 4 m/S 752 mmHg 72%
    09:00 +21°C° 0.1 mm 4 m/S 752 mmHg 69%
    10:00 +22°C° 0.1 mm 5 m/S 752 mmHg 66%
    11:00 +22°C° 0.1 mm 5 m/S 752 mmHg 63%
    12:00 +23°C° 0.1 mm 5 m/S 751 mmHg 59%
    13:00 +25°C° 0.1 mm 5 m/S 751 mmHg 56%
    14:00 +25°C° 0 mm 5 m/S 751 mmHg 57%
    15:00 +25°C° 0 mm 5 m/S 751 mmHg 58%
    16:00 +25°C° 0 mm 5 m/S 751 mmHg 58%
    17:00 +23°C° 0.1 mm 4 m/S 751 mmHg 65%
    18:00 +22°C° 0.1 mm 4 m/S 751 mmHg 71%
    19:00 +21°C° 0.1 mm 4 m/S 751 mmHg 77%
    20:00 +20°C° 0 mm 3 m/S 751 mmHg 81%
    21:00 +19°C° 0 mm 3 m/S 751 mmHg 85%
    22:00 +18°C° 0 mm 3 m/S 752 mmHg 89%
    23:00 +18°C° 0 mm 3 m/S 752 mmHg 88%

    27 Juli, Samstag

    Zeit Temperatur Niederschläge Wind Luftdruck Luftfeuchtigkeit
    00:00 +19°C° 0 mm 3 m/S 752 mmHg 88%
    01:00 +19°C° 0 mm 3 m/S 752 mmHg 87%
    02:00 +18°C° 0 mm 3 m/S 751 mmHg 90%
    03:00 +18°C° 0 mm 3 m/S 751 mmHg 92%
    04:00 +17°C° 0 mm 3 m/S 751 mmHg 95%
    05:00 +18°C° 0 mm 3 m/S 751 mmHg 90%
    06:00 +20°C° 0 mm 3 m/S 752 mmHg 85%
    07:00 +21°C° 0 mm 3 m/S 752 mmHg 79%
    08:00 +23°C° 0 mm 4 m/S 752 mmHg 71%
    09:00 +26°C° 0 mm 4 m/S 752 mmHg 64%
    10:00 +27°C° 0 mm 5 m/S 752 mmHg 56%
    11:00 +28°C° 0 mm 5 m/S 752 mmHg 53%
    12:00 +29°C° 0 mm 5 m/S 751 mmHg 50%
    13:00 +30°C° 0 mm 4 m/S 751 mmHg 48%
    14:00 +30°C° 0 mm 4 m/S 751 mmHg 48%
    15:00 +30°C° 0 mm 4 m/S 751 mmHg 49%
    16:00 +29°C° 0 mm 4 m/S 751 mmHg 50%
    17:00 +28°C° 0 mm 4 m/S 751 mmHg 55%
    18:00 +27°C° 0 mm 4 m/S 751 mmHg 59%
    19:00 +26°C° 0 mm 3 m/S 751 mmHg 64%
    20:00 +25°C° 0 mm 3 m/S 751 mmHg 68%
    21:00 +24°C° 0 mm 3 m/S 751 mmHg 72%
    22:00 +23°C° 0 mm 2 m/S 752 mmHg 75%
    23:00 +21°C° 0 mm 2 m/S 752 mmHg 79%

    28 Juli, Sonntag

    Zeit Temperatur Niederschläge Wind Luftdruck Luftfeuchtigkeit
    00:00 +20°C° 0 mm 2 m/S 752 mmHg 84%
    01:00 +20°C° 0 mm 2 m/S 752 mmHg 88%
    02:00 +20°C° 0 mm 2 m/S 752 mmHg 89%
    03:00 +19°C° 0 mm 2 m/S 752 mmHg 90%
    04:00 +19°C° 0 mm 2 m/S 752 mmHg 92%
    05:00 +21°C° 0 mm 2 m/S 752 mmHg 85%
    06:00 +23°C° 0 mm 2 m/S 752 mmHg 79%
    07:00 +25°C° 0 mm 2 m/S 752 mmHg 73%
    08:00 +26°C° 0 mm 3 m/S 752 mmHg 65%
    09:00 +28°C° 0 mm 3 m/S 752 mmHg 57%
    10:00 +30°C° 0 mm 3 m/S 752 mmHg 49%
    11:00 +30°C° 0 mm 3 m/S 752 mmHg 47%
    12:00 +31°C° 0 mm 3 m/S 752 mmHg 45%
    13:00 +31°C° 0 mm 3 m/S 751 mmHg 43%
    14:00 +31°C° 0 mm 3 m/S 751 mmHg 45%
    15:00 +31°C° 0 mm 3 m/S 751 mmHg 46%
    16:00 +31°C° 0 mm 3 m/S 751 mmHg 47%
    17:00 +29°C° 0 mm 3 m/S 751 mmHg 52%
    18:00 +28°C° 0 mm 2 m/S 751 mmHg 56%
    19:00 +27°C° 0 mm 2 m/S 751 mmHg 61%
    20:00 +26°C° 0 mm 2 m/S 751 mmHg 64%
    21:00 +25°C° 0 mm 2 m/S 752 mmHg 67%
    22:00 +24°C° 0 mm 2 m/S 752 mmHg 70%
    23:00 +23°C° 0 mm 1 m/S 752 mmHg 74%
    Mehr zeigen